Location: El Escondido
(32.5691°N, 116.4250°W)
Time: 05:17:09
(UTC+00:00)

Cosmos 2278 Rocket - Pass Details

Date: 13 April 2024
Orbit: 839 x 846 km, 71.0° (Epoch: 25 May)

Event Time Altitude Azimuth Distance (km) Brightness Sun altitude
Rises 12:26:23 0° 322° (NW) 3,409 5.2 -11.3°
Reaches altitude 10° 12:29:19 10° 308° (NW) 2,469 4.3 -10.7°
Maximum altitude 12:33:35 22° 259° (W) 1,755 3.3 -9.9°
Drops below altitude 10° 12:37:49 10° 210° (SSW) 2,456 4.2 -9.0°
Sets 12:40:46 0° 195° (SSW) 3,386 5.0 -8.4°
